Regional Weather Roundup
Issued by NWS

Home | Current Version | Previous Version | Text Only | Print | Product List | Glossary Off
Versions: 1 2 3 4 5 6 7 8 9 10 11 12 13 14 15 16 17 18 19 20 21 22 23 24 25 26 27 28 29 30 31 32 33 34 35 36 37 38 39 40 41 42 43 44 45 46 47 48 49 50

000
ASUS43 KMPX 200701
RWRMN
WEATHER ROUNDUP FOR MINNESOTA
NATIONAL WEATHER SERVICE TWIN CITIES/CHANHASSEN MN
200 AM CDT THU JUL 20 2017


NOTE: "FAIR" INDICATES FEW OR NO CLOUDS BELOW 12,000 FEET WITH NO
SIGNIFICANT WEATHER AND/OR OBSTRUCTIONS TO VISIBILITY. N/A MEANS
CURRENT SKY AND/OR WEATHER CONDITIONS ARE NOT AVAILABLE.

MNZ060>063-068>070-200800-
   Twin Cities Metro

CITY           SKY/WX    TMP DP  RH WIND       PRES   REMARKS
TWIN CITIES    CLOUDY    70  68  93 W3        29.92F FOG
ST PAUL        CLOUDY    70  69  97 CALM      29.92F
CRYSTAL        CLOUDY    70  65  84 CALM      29.91F
BLAINE         PTCLDY    70  70 100 CALM      29.93R FOG
LAKEVILLE      CLOUDY    68  68 100 E3        29.93F FOG
EDEN PRAIRIE   CLOUDY    69  67  93 CALM      29.91F FOG
SOUTH ST PAUL  CLOUDY    69  69  99 CALM      29.92S
LAKE ELMO      CLOUDY    70  68  94 N3        29.94R
$$
MNZ001>005-007-008-013>017-022>024-027-028-200800-
   Northwest Minnesota

CITY           SKY/WX    TMP DP  RH WIND       PRES   REMARKS
BEMIDJI        CLEAR     65  63  95 W8        29.93S
HALLOCK        CLEAR     63  61  94 NW5       29.93R
ROSEAU         CLEAR     63  57  82 SW5       29.92R
WARROAD        CLEAR     64  61  88 W6        29.91S
CROOKSTON      PTCLDY    63  61  94 W3        29.95S
FOSSTON        CLEAR     63  61  94 CALM      29.96S
DETROIT LAKES  CLEAR     68  64  88 W5        29.96F
MOORHEAD       PTCLDY    64  63  94 CALM      29.95S FOG
PARK RAPIDS    CLEAR     61  58  90 W5        29.94F
MAHNOMEN       FAIR      62  61  97 NW3       29.96S
$$
MNZ006-009>011-018-025>026-200800-
   North Central Minnesota

CITY           SKY/WX    TMP DP  RH WIND       PRES   REMARKS
BAUDETTE       CLEAR     65  63  93 W5        29.90S
FLAG ISLAND    CLEAR     68  63  83 W12       29.88S
INTL FALLS     PTCLDY    62  58  86 W6        29.89S
WASKISH        CLEAR     70  66  88 W8        29.91S
BIG FORK       CLEAR     59  57  94 CALM      29.91F
LONGVILLE      CLEAR     61  61 100 CALM      29.93S FOG
GRAND RAPIDS   CLEAR     65  62  90 CALM      29.94F
CRANE LAKE     CLEAR     57  57 100 CALM      29.91S
ORR            PTCLDY    61  55  82 CALM      29.89R
COOK           CLEAR     63  57  82 CALM      29.91F
WALKER         FAIR      65  63  90 W5        29.93S
$$
MNZ012-019>021-037-200800-
   Northeast Minnesota

CITY           SKY/WX    TMP DP  RH WIND       PRES   REMARKS
DULUTH         CLEAR     59  56  89 SW5       29.93F
ELY            CLEAR     57  55  94 CALM      29.92S
HIBBING        CLEAR     53  53 100 CALM      29.92F FOG
EVELETH        CLEAR     55  52  90 CALM      29.93F
DULUTH HARBOR  CLEAR     63  57  82 CALM      29.92F
TWO HARBORS    CLEAR     59  54  82 CALM      29.91S
GRAND MARAIS     N/A     57  55  93 CALM      29.88F
G MARAIS ARPRT CLEAR     52  48  87 CALM      29.94F
$$
MNZ029>031-032-039>041-046>048-054>057-064-200800-
   West Central Minnesota

CITY           SKY/WX    TMP DP  RH WIND       PRES   REMARKS
FERGUS FALLS   CLEAR     64  64 100 CALM      29.94F
WHEATON        CLEAR     64  63  94 CALM      29.97R
MORRIS         MOCLDY    66  64  94 CALM      29.94F FOG
ALEXANDRIA     PTCLDY    64  63  96 SW6       29.97F
ELBOW LAKE     FAIR      65  65  99 SW3       29.96S FOG
WADENA         CLEAR     64  64 100 W3        29.94F
GLENWOOD       CLEAR     63  61  94 NW3       29.96S
APPLETON       CLEAR     66  64  94 CALM      29.93S
BENSON         CLEAR     64  63  94 NE6       29.95S FOG
ORTONVILLE     CLEAR     66  64  94 NW3       29.95S
MADISON        CLEAR     72  72 100 CALM      29.94R
WILLMAR        FAIR      66  66 100 CALM      29.95R FOG
$$
MNZ033>034-036-042>043-049>051-058-059-200800-
   Central Minnesota

CITY           SKY/WX    TMP DP  RH WIND       PRES   REMARKS
ST CLOUD       PTCLDY    63  63 100 CALM      29.93F FOG
SAUK CENTRE    FAIR      61  60  99 CALM      29.95F
PAYNESVILLE    MOCLDY    65  64  99 CALM      29.95S FOG
AITKIN         CLEAR     55  54  94 CALM      29.93F
PINE RIVER     CLEAR     63  63 100 MISG      29.97S
BRAINERD       CLEAR     59  59 100 CALM      29.93F FOG
STAPLES        CLEAR     61  57  88 CALM      29.94F FOG
LONG PRAIRIE   FAIR      61  59  94 CALM      29.95F
LITTLE FALLS   CLEAR     59  59 100 CALM      29.94F FOG
LITCHFIELD     PTCLDY    70  68  94 CALM      29.95R
BUFFALO        MOCLDY    67  65  93 CALM      29.95R
MAPLE LAKE     FOG       67  66  97 CALM      29.95R VSB 1
HUTCHINSON     PTCLDY    68  68  98 CALM      29.95F
$$
MNZ037-044-045-052-053-200800-
   East Central Minnesota

CITY           SKY/WX    TMP DP  RH WIND       PRES   REMARKS
PRINCETON      CLEAR     64  63  94 CALM      29.94R FOG
MORA           CLEAR     61  59  94 CALM      29.95F
CAMBRIDGE      PTCLDY    66  61  82 CALM      29.92S
RUSH CITY      MOCLDY    62  60  95 CALM      29.94R
MOOSE LAKE       N/A     55  54  94 CALM      29.92F FOG
HINCKLEY       FAIR      63  63 100 CALM      29.93F
CLOQUET        CLEAR     59  55  88 CALM      29.94F
MCGREGOR       CLEAR     61  59  94 CALM      29.94F
$$
MNZ071>073-080-081-089-090-097-098-200800-
   Southwest Minnesota

CITY           SKY/WX    TMP DP  RH WIND       PRES   REMARKS
MONTEVIDEO     CLEAR     66  64  94 CALM      29.93S
GRANITE FALLS  CLEAR     70  67  90 SE5       29.95S
CANBY          CLEAR     70  68  95 CALM      29.97R
MARSHALL       MOCLDY    70  69  97 CALM      29.97R
REDWOOD FALLS  CLOUDY    69  67  93 CALM      29.93S
OLIVIA         CLOUDY    70  66  88 SE5       29.93S
PIPESTONE      PTCLDY    72  66  83 SE6       29.98R
WINDOM         CLOUDY    70  66  88 E6        29.95S
WORTHINGTON    CLOUDY    70  65  84 N8        29.96F
JACKSON        CLOUDY    70  64  83 N8        29.96R
TRACY          CLOUDY    70  70  99 CALM      29.96S
SLAYTON        HVY RAIN  70  67  93 NE6       29.99R
$$
MNZ065>067-074>077-082>085-091>093-200800-
   South Central Minnesota

CITY           SKY/WX    TMP DP  RH WIND       PRES   REMARKS
MANKATO        LGT RAIN  70  68  93 NE5       29.95R
NEW ULM        CLOUDY    70  66  88 E7        29.95R
ST JAMES       CLOUDY    70  68  94 CALM      29.96F
FAIRMONT       TSTM      71  69  93 S9        29.90F
GLENCOE        CLOUDY    69  69 100 SE3       29.92F FOG
FARIBAULT      CLOUDY    70  68  94 NE3       29.95R
OWATONNA       CLOUDY    72  68  88 NE7       29.94
WASECA         CLOUDY    72  68  88 N6        29.96R
ALBERT LEA     CLOUDY    73  72  94 S7        29.92R
$$
MNZ078>079-086>088-094>096-200800-
   Southeast Minnesota

CITY           SKY/WX    TMP DP  RH WIND       PRES   REMARKS
ROCHESTER      CLOUDY    69  67  93 SE16G24   29.92F
RED WING       CLOUDY    72  70  94 CALM      29.93S
STANTON        LGT RAIN  71  69  93 CALM      29.94R
DODGE CENTER   CLOUDY    70  66  88 E3        29.94R
WINONA         CLOUDY    70  68  94 N15G29    29.96R
AUSTIN         CLOUDY    73  70  88 S6        29.93R
PRESTON        CLOUDY    68  64  88 SE6       29.95F
$$
ABBREVIATIONS USED IN REMARKS
   TC - TEMPERATURES IN CELSIUS
  WCI - WIND CHILL INDEX
   HX - HEAT INDEX
  VSB - VISIBILITY
$$




USA.gov is the U.S. government's official web portal to all federal, state and local government web resources and services.